カタログに戻る

STARLINK-30514

運用中通信VLEO
NORAD 58028·PAYLOAD·🇺🇸 United States

打ち上げ Oct 9, 2023 から Vandenberg Space Force Base

Loading…

次のパス (今後24時間)

TLE

最新Source: CelesTrak SupGP

元期: Sep 15, 2026, 02:55 UTC

1 58028C 23156A   26258.12201389 -.00009018  00000+0 -26638-3 0  2584
2 58028  53.1578 276.5449 0001293  89.9659   5.2015 15.34400493    19

AllMySatでSTARLINK-30514をリアルタイム追跡

Download on the App Store